Вернуться в каталог

FENGYUN 1C DEB

LostSSO
NORAD 31421·DEBRIS·🇨🇳 China

Запущен May 10, 1999 с Taiyuan Satellite Launch Center

Loading…

Ближайшие Пролёты (ближайшие 24 часа)

TLE

УстаревшееSource: Space-Track

Эпоха: Sep 25, 2015, 22:31 UTC

1 31421U 99025BTH 15268.93844154  .00000043  00000-0  40662-4 0  9995
2 31421  98.9667 322.4350 0063074 179.0666 181.0639 14.20221517436491

Отслеживайте FENGYUN 1C DEB в реальном времени с AllMySat

Download on the App Store